AO-07 1 07530U 74089B 24241.78984206 -.00000019 00000-0 16861-3 0 9996 2 07530 101.9839 237.1294 0011951 307.2196 227.1509 12.53678579278131 UO-11 1 14781U 84021B 24242.64196060 .00004581 00000-0 51458-3 0 9996 2 14781 97.7111 209.7548 0007871 181.3888 178.7308 14.87200395180400 AO-27 1 22825U 93061C 24242.13942586 .00000392 00000-0 16754-3 0 9990 2 22825 98.7824 295.6555 0007711 219.5698 140.4921 14.30560719613313 FO-29 1 24278U 96046B 24241.94886713 .00000071 00000-0 10925-3 0 9995 2 24278 98.5793 167.0613 0350200 359.9843 0.1231 13.53203672384274 NOAA-15 1 25338U 98030A 24242.80803018 .00000576 00000-0 25570-3 0 9993 2 25338 98.5661 268.3898 0011480 108.2123 252.0309 14.26682756367939 GO-32 1 25397U 98043D 24242.65947690 .00000412 00000-0 19893-3 0 9990 2 25397 98.9293 210.5061 0000837 6.1951 353.9238 14.24104377358094 ISS 1 25544U 98067A 24242.65691417 .00026114 00000-0 47784-3 0 9990 2 25544 51.6415 311.3446 0011238 294.9456 162.2968 15.49102662469942 NO-44 1 26931U 01043C 24241.46044630 .00000611 00000-0 26141-3 0 9994 2 26931 67.0512 144.8279 0007765 270.2170 89.8042 14.31340335196298 SO-50 1 27607U 02058C 24241.60769199 .00004877 00000-0 66529-3 0 9994 2 27607 64.5572 358.8736 0025757 72.2702 288.1211 14.79487548167249 CO-55 1 27844U 03031E 24241.28591414 .00001014 00000-0 46596-3 0 9998 2 27844 98.6794 247.3207 0008551 299.3649 60.6675 14.23410691 98048 CO-57 1 27848U 03031J 24240.96756813 .00000792 00000-0 37239-3 0 9998 2 27848 98.6824 247.2102 0008708 318.6727 41.3791 14.22829865 97742 RS-22 1 27939U 03042A 24242.86858021 .00004612 00000-0 76931-3 0 9993 2 27939 98.2995 40.2898 0011837 182.8599 314.7193 14.70420421119102 NOAA-18 1 28654U 05018A 24242.83762979 .00000547 00000-0 31509-3 0 9991 2 28654 98.8706 319.1818 0013812 210.7031 149.3334 14.13302910993669 CO-58 1 28895U 05043F 24242.65081465 .00006185 00000-0 10773-2 0 9993 2 28895 98.2106 18.6462 0016260 124.0573 236.2178 14.68319745 5466 CO-65 1 32785U 08021C 24242.79514004 .00013526 00000-0 11460-2 0 9991 2 32785 97.7616 207.5880 0013861 83.5954 276.6846 14.98028294886565 AAUSAT2 1 32788U 08021F 24241.67668984 .00059965 00000-0 25820-2 0 9999 2 32788 97.5987 222.3663 0000694 231.8099 128.3075 15.22371457889334 CO-66 1 32791U 08021J 24242.41240837 .00022448 00000-0 15383-2 0 9998 2 32791 97.6954 213.2930 0007417 73.4470 286.7571 15.06034012887616 RS-30 1 32953U 08025A 24242.79176212 .00000068 00000-0 41555-3 0 9993 2 32953 82.5020 43.6905 0018711 305.6367 54.2969 12.43146685738278 PRISM 1 33493U 09002B 24241.13104463 .00047161 00000-0 19137-2 0 9990 2 33493 98.1976 295.1754 0009659 3.7003 356.4302 15.24411804849980 NOAA-19 1 33591U 09005A 24242.79959677 .00000507 00000-0 29555-3 0 9999 2 33591 99.0412 299.3578 0014826 85.8837 274.4028 14.13095518802027 SRMSAT 1 37841U 11058D 24241.87307277 .00000786 00000-0 28457-3 0 9992 2 37841 19.9723 77.1358 0011747 173.6885 215.9246 14.11183777664842 RS-40 1 38735U 12041C 24242.20477502 .00000039 00000-0 21278-3 0 9990 2 38735 82.4756 124.3719 0018393 60.1716 300.1189 12.42614220548342 ZACUBE-1 1 39417U 13066B 24242.12814687 .00011868 00000-0 11934-2 0 9995 2 39417 97.7384 196.5334 0047149 279.3748 80.2141 14.90541454582446 Delfi-N3xt 1 39428U 13066N 24241.52694274 .00015952 00000-0 19574-2 0 9994 2 39428 97.8325 158.0135 0097015 212.7588 146.7586 14.79834731576967 GOMX-1 1 39430U 13066Q 24242.77439881 .00006722 00000-0 10997-2 0 9991 2 39430 97.7216 112.6906 0139284 19.4541 341.1905 14.64814873573812 LO-74 1 39440U 13066AA 24242.41239648 .00012041 00000-0 13755-2 0 9998 2 39440 97.8145 184.5539 0069832 36.3351 324.2575 14.84420347580390 AO-73 1 39444U 13066AE 24241.40308597 .00015235 00000-0 14135-2 0 9991 2 39444 97.7233 199.1485 0044273 259.9418 99.6805 14.93765184580886 DTUSAT-2 1 40030U 14033W 24242.57358759 .00015169 00000-0 12219-2 0 9990 2 40030 98.0169 197.0521 0006745 281.5015 78.5449 15.00014810554204 EO-80 1 40032U 14033Y 24242.60695389 .00015076 00000-0 12140-2 0 9999 2 40032 98.0077 197.0802 0007155 252.4288 107.6153 15.00028195554196 XW-2C 1 40906U 15049H 24242.80948392 .00061671 00000-0 11300-2 0 9993 2 40906 97.4751 261.8323 0007986 58.6274 301.5757 15.49074042495845 XW-2D 1 40907U 15049J 24242.83861434 .00119424 00000-0 13984-2 0 9998 2 40907 97.4671 265.3740 0005162 60.1346 300.0423 15.61132907496148 LILACSAT-2 1 40908U 15049K 24242.77281062 .00019290 00000-0 69840-3 0 9998 2 40908 97.5251 252.1077 0014145 93.1662 267.1195 15.28349355494720 XW-2B 1 40911U 15049N 24242.84641124 .00114402 00000-0 14082-2 0 9997 2 40911 97.4650 265.3422 0005484 62.0756 298.1055 15.59836096496000 IO-86 1 40931U 15052B 24231.70395842 .00002296 00000-0 22250-3 0 9993 2 40931 5.9997 265.9807 0013402 250.6059 109.2619 14.78018769480834 ChubuSat-2 1 41338U 16012B 24242.77773456 .00011963 00000-0 72001-3 0 9992 2 41338 31.0002 276.7753 0011072 251.6487 108.2947 15.09555201468729 ChubuSat-3 1 41339U 16012C 24242.42123254 .00010803 00000-0 66280-3 0 9994 2 41339 31.0070 278.0522 0011055 252.2601 107.6830 15.08835133468649 Horyu-4 1 41340U 16012D 24240.30525293 .00020372 00000-0 93982-3 0 9991 2 41340 31.0009 231.3044 0008392 329.0778 30.9368 15.19036741468961 Lapan A3 1 41603U 16040E 24242.83333753 .00007313 00000-0 28606-3 0 9993 2 41603 97.1431 253.2537 0011476 190.2413 169.8594 15.26059395454456 Pratham 1 41783U 16059A 24242.27969525 .00002521 00000-0 47335-3 0 9998 2 41783 97.8361 258.1928 0033340 146.5479 213.7840 14.65172278423246 CAS-2T 1 41847U 16066G 24242.19158271 .00002355 00000-0 35189-3 0 9995 2 41847 98.4553 312.9478 0351758 317.6065 39.8428 14.41677435410013 CAS-4B 1 42759U 17034B 24242.82610536 .00032405 00000-0 10341-2 0 9992 2 42759 43.0151 169.3797 0010794 128.1255 232.0573 15.31864763398680 CAS-4A 1 42761U 17034D 24242.82140471 .00031916 00000-0 10135-2 0 9998 2 42761 43.0190 167.7011 0010497 141.7460 218.4140 15.32031259398692 Aalto 1 1 42775U 17036L 24241.04230611 .01413036 14355-2 13650-2 0 9997 2 42775 97.0802 272.9442 0007296 219.5797 140.4956 16.11987389400463 D-SAT 1 42794U 17036AF 24241.90997875 .00013721 00000-0 92301-3 0 9992 2 42794 97.4787 221.1965 0105302 260.8198 98.1103 15.02352812391634 TechnoSat 1 42829U 17042E 24242.84287148 .00009384 00000-0 80813-3 0 9992 2 42829 97.3872 59.8352 0012381 178.2448 181.8820 14.97488730388192 AO-91 1 43017U 17073E 24242.38604422 .00020476 00000-0 12134-2 0 9998 2 43017 97.5662 115.3248 0206188 49.0386 312.8475 14.95234714366590 TianYi 6 1 43158U 18008D 24242.69128352 .00189540 00000-0 20844-2 0 9995 2 43158 97.2511 292.1477 0007705 177.9821 182.1470 15.62516911365884 S-Net D 1 43186U 18014G 24242.18441045 .00011938 00000-0 82632-3 0 9993 2 43186 97.5818 142.7648 0012610 113.6733 246.5818 15.05760844359481 S-Net B 1 43187U 18014H 24241.92125173 .00011765 00000-0 81460-3 0 9992 2 43187 97.5825 142.4609 0013419 110.9629 249.3036 15.05744777359442 S-Net A 1 43188U 18014J 24242.18549870 .00011915 00000-0 82452-3 0 9995 2 43188 97.5830 142.8395 0013337 110.6949 249.5709 15.05761865359486 S-Net C 1 43189U 18014K 24241.92333125 .00011823 00000-0 81813-3 0 9999 2 43189 97.5846 142.5440 0015052 105.7693 254.5195 15.05744844357996 Ten-Koh 1 43677U 18084G 24242.42998925 .00007935 00000-0 69603-3 0 9991 2 43677 98.0708 38.1860 0014301 133.5618 226.6793 14.96840908317671 PO-101 1 43678U 18084H 24242.80628432 .00005418 00000-0 49051-3 0 9996 2 43678 98.0806 43.0081 0009828 140.6193 219.5743 14.95797886317925 QO-100 1 43700U 18090A 24241.91854758 .00000128 00000-0 00000-0 0 9993 2 43700 0.0153 124.0119 0002606 74.9293 135.1269 1.00271886 21082 MinXSS-2 1 43758U 18099A 24241.92528343 .00025450 00000-0 15011-2 0 9999 2 43758 97.5480 303.2496 0016648 71.9176 288.3866 15.11420410313765 AO-95 1 43770U 18099N 24241.10284166 .00016014 00000-0 10534-2 0 9996 2 43770 97.5398 297.4650 0014647 116.9224 243.3502 15.07558624313395 RANGE-B 1 43772U 18099Q 24241.89990438 .00029020 00000-0 16571-2 0 9998 2 43772 97.5188 302.0176 0005011 32.3566 327.7972 15.12667974313703 RANGE-A 1 43773U 18099R 24241.87845652 .00011327 00000-0 83197-3 0 9994 2 43773 97.4968 292.7999 0014619 88.6147 271.6754 15.03518674313358 MOVE-II 1 43780U 18099Y 24241.41791919 .00055896 00000-0 25576-2 0 9993 2 43780 97.5145 303.9087 0006674 95.8212 264.3784 15.20292849313884 SNUSat 2 1 43782U 18099AA 24241.89225969 .00015804 00000-0 10676-2 0 9994 2 43782 97.5083 296.9888 0015270 59.1980 301.0749 15.06567302313517 SnugLite 1 43784U 18099AC 24241.12050590 .00014041 00000-0 91961-3 0 9997 2 43784 97.4887 295.5414 0005381 76.1259 284.0567 15.07824952313471 ITASat 1 1 43786U 18099AE 24241.86893084 .00014143 00000-0 97763-3 0 9992 2 43786 97.5041 297.1190 0018498 105.0954 255.2321 15.05691770313502 EAGLET 1 1 43790U 18099AJ 24241.39326715 .00010026 00000-0 72981-3 0 9998 2 43790 97.5215 297.1423 0014677 86.1160 274.1743 15.03892208313125 ESEO 1 43792U 18099AL 24242.12189075 .00004455 00000-0 36027-3 0 9998 2 43792 97.5127 294.2456 0010189 73.5720 286.6624 15.00233245313133 CSIM 1 43793U 18099AM 24241.41994409 .00051238 00000-0 23711-2 0 9991 2 43793 97.5240 305.6826 0011414 67.6888 292.5555 15.19891529313739 JO-97 1 43803U 18099AX 24241.41517394 .00020793 00000-0 13006-2 0 9995 2 43803 97.5146 298.5424 0010441 62.9738 297.2555 15.09398053313589 Suomi 100 1 43804U 18099AY 24242.10432098 .00019736 00000-0 12644-2 0 9992 2 43804 97.5219 298.9906 0016009 56.5819 303.6938 15.08468514313660 ISAT 1 43879U 18111D 24242.49036561 .00026693 00000-0 15043-2 0 9992 2 43879 97.6100 147.9286 0015199 105.9506 254.3401 15.13072140308479 UWE-4 1 43880U 18111E 24241.46948909 .00026254 00000-0 15316-2 0 9994 2 43880 97.6026 146.7370 0018543 117.2336 243.0786 15.11783187310340 Sparrow 1 43881U 18111F 24242.50141561 .00027040 00000-0 15008-2 0 9992 2 43881 97.6195 149.9879 0011717 137.7828 222.4307 15.13655220308565 Prox-1 1 44339U 19036A 24241.98982732 .00022916 00000-0 37790-2 0 9991 2 44339 23.9979 116.3619 0008045 88.7138 271.4278 14.68998164276049 SONATE 1 44400U 19038Q 24241.51223222 .00048720 00000-0 12738-2 0 9999 2 44400 97.7154 239.0573 0014375 195.5378 164.5427 15.38500036285188 Taurus 1 1 44530U 19059C 24242.76725862 .00015042 00000-0 33465-2 0 9992 2 44530 98.5808 4.9797 0011639 188.6635 171.4363 14.57003654262470 Duchifat 3 1 44854U 19089C 24242.53637991 .00032432 00000-0 14767-2 0 9990 2 44854 36.9560 322.6716 0005273 1.8458 358.2308 15.19836357259357 TO-108 1 44881U 19093C 24242.81067700 .00003229 00000-0 39250-3 0 9998 2 44881 97.8240 318.1722 0015640 83.3792 276.9202 14.84097907253961 FloripaSat 1 1 44885U 19093G 24242.84429317 .00012751 00000-0 12720-2 0 9993 2 44885 97.8378 324.9062 0013094 74.9720 285.2947 14.91615428254341 RS-44 1 44909U 19096E 24242.21063132 .00000045 00000-0 14103-3 0 9994 2 44909 82.5186 56.2390 0216624 240.3538 117.5835 12.79733359218368 UPMSat 2 1 46276U 20061E 24241.43464400 .00038010 00000-0 10329-2 0 9991 2 46276 97.2909 306.9722 0001403 169.9173 190.2100 15.37465077221267 AmicalSat 1 46287U 20061R 24242.18796395 .00076649 00000-0 16265-2 0 9992 2 46287 97.3416 309.7840 0000938 261.2708 98.8434 15.44771549220801 SALSAT 1 46495U 20068K 24241.39015320 .00015631 00000-0 84614-3 0 9992 2 46495 97.8214 202.5884 0015632 71.2395 289.0530 15.14626475215235 UVSQ-SAT 1 47438U 21006AB 24242.07703502 .00173679 00000-0 19680-2 0 9992 2 47438 97.3159 304.1181 0004323 269.4762 90.6000 15.61813670200058 SOMP 2b 1 47445U 21006AJ 24242.72228558 .00126747 00000-0 17971-2 0 9990 2 47445 97.3121 302.5800 0004250 295.1076 64.9738 15.56009368200044 IDEASSat 1 47458U 21006AX 24242.41130204 .00099379 00000-0 16747-2 0 9990 2 47458 97.3245 302.5178 0004047 302.1844 57.9015 15.51326489199902 CubeSX-Sirius-HSE 1 47951U 21022V 24242.86785829 .00037811 00000-0 12938-2 0 9995 2 47951 97.4493 141.2104 0010739 226.3204 133.7148 15.30092043189828 CubeSX-HSE 1 47952U 21022W 24242.81514299 .00040980 00000-0 13930-2 0 9996 2 47952 97.4491 141.2646 0010738 225.0560 134.9810 15.30287953189823 KSU-Cubesat 1 47954U 21022Y 24242.24838271 .00055973 00000-0 16750-2 0 9995 2 47954 97.4502 142.4026 0009486 215.8041 144.2567 15.34306758189565 GRBAlpha 1 47959U 21022AD 24242.84052440 .00039403 00000-0 13368-2 0 9994 2 47959 97.4494 141.4512 0010579 224.6009 135.4381 15.30361569188658 Orbicraft-Zorkiy 1 47960U 21022AE 24242.85640512 .00049617 00000-0 15459-2 0 9991 2 47960 97.4537 143.0431 0009598 216.8167 143.2417 15.33055746189426 TUBIN 1 48900U 21059X 24242.81485521 .00032103 00000-0 98634-3 0 9998 2 48900 97.6540 29.7985 0006607 184.6157 175.5025 15.33627274176194 LEDSAT 1 49069U 21073D 24241.43095517 .00040005 00000-0 14361-2 0 9994 2 49069 97.4315 312.2166 0017574 32.2169 328.0141 15.28419978167475 CUTE 1 49263U 21088D 24242.13761907 .00041557 00000-0 17254-2 0 9994 2 49263 97.4905 307.8017 0013938 181.5670 178.5525 15.23622743160733 TeikyoSat 4 1 49396U 21102B 24241.86683797 .00006050 00000-0 42995-3 0 9997 2 49396 97.4548 284.3336 0013820 34.1009 326.1103 15.04966177153685 Z-Sat 1 49399U 21102E 24242.81663245 .00010072 00000-0 62926-3 0 9997 2 49399 97.4256 286.9975 0019811 9.5108 350.6492 15.09487439154096 KOSEN 1 1 49402U 21102H 24242.36928607 .00013740 00000-0 77915-3 0 9997 2 49402 97.4179 288.2850 0017628 353.9168 6.1847 15.12955184154209 HO-113 1 50466U 21131B 24242.86162901 .00001820 00000-0 59326-3 0 9995 2 50466 98.5261 327.5894 0003087 262.3828 97.7009 14.39871931140600 IRIS-A 1 51044U 22002BN 24242.46622619 .00044861 00000-0 12780-2 0 9993 2 51044 97.3779 308.8887 0006732 133.7887 226.3914 15.35935187145650 OreSat0 1 52017U 22026K 24242.00664388 .00309760 00000-0 20745-2 0 9991 2 52017 97.4855 260.4575 0002910 260.2863 99.8072 15.74373615137078 Planetum 1 1 52738U 22057G 24242.29872531 .00108357 00000-0 18243-2 0 9996 2 52738 97.5702 11.5564 0006164 246.9286 113.1316 15.51306693125860 Foresail-1 1 52766U 22057AL 24242.32220473 .00044098 00000-0 12410-2 0 9994 2 52766 97.5886 9.7840 0009026 230.1230 129.9220 15.36304827125661 SNUGLITE 2 1 52899U 22065F 24242.67793662 .00004441 00000-0 90919-3 0 9992 2 52899 98.1289 22.4567 0006636 285.2701 74.7767 14.61259812114995 IO-117 1 53106U 22080B 24228.11242500 -.00000003 00000-0 00000-0 0 9994 2 53106 70.1424 172.0499 0007747 94.1050 266.0495 6.42557430 49057 SelfieSat 1 53951U 22057BC 24242.35034442 .00947287 40232-3 25098-2 0 9995 2 53951 97.5574 18.0222 0011773 272.1230 87.8697 15.94605636126259 FO-118 1 54684U 22167C 24242.83925023 .00063691 00000-0 17844-2 0 9992 2 54684 97.6117 29.7371 0010033 246.0672 113.9521 15.36337225 95589 SSS-2B 1 56184U 23054G 24242.17359718 .00090363 00000-0 16437-2 0 9997 2 56184 97.3564 141.1091 0002056 231.2522 128.8546 15.49195710 77401 CIRBE 1 56188U 23054L 24241.45702802 .00263138 00000-0 19880-2 0 9994 2 56188 97.3440 143.9403 0005763 154.0605 206.0948 15.71646544 77559 INSPIRE-Sat 7 1 56211U 23054AK 24242.47430628 .00443219 00000-0 22204-2 0 9992 2 56211 97.3443 146.7302 0008460 153.5776 206.5924 15.80573588 77813 RoseyCubesat 1 1 56212U 23054AL 24242.65224740 .02358097 76155-2 20958-2 0 9990 2 56212 97.3416 148.8409 0010094 177.8547 182.2784 16.14756972 77964 SO-120 1 56992U 23084BU 24242.58905642 .00071215 00000-0 20878-2 0 9994 2 56992 97.5352 3.0673 0009878 130.9515 229.2584 15.34879249 67411 MRC-100 1 56993U 23084BV 24242.30474654 .00087326 00000-0 22910-2 0 9998 2 56993 97.5344 3.4710 0008380 132.1901 228.0057 15.38285953 67429 UmKA 1 (RS40S) 1 57172U 23091G 24242.84631530 .00011276 00000-0 71762-3 0 9994 2 57172 97.6054 294.1797 0015608 225.9865 134.0078 15.08852508 64590 CubeBel-2 (EU11S) 1 57175U 23091K 24242.82087418 .00015680 00000-0 96652-3 0 9993 2 57175 97.6063 294.2014 0013734 237.5157 122.4745 15.09964387 64599 VERONIKA 1 58261U 23174F 24242.78612236 .00034554 00000-0 13699-2 0 9999 2 58261 97.4552 317.0560 0010233 346.7513 13.3454 15.25260491 44919 KAFASAT 1 58317U 23174BP 24242.29246889 .00053464 00000-0 18450-2 0 9995 2 58317 97.4495 317.5004 0008961 318.7682 41.2881 15.29746213 44915 ENSO 1 58470U 23185J 24242.83320165 .00029865 00000-0 11313-2 0 9996 2 58470 97.4203 308.9138 0011315 25.5632 334.6164 15.26797792 41363 EIRSAT-1 1 58472U 23185L 24242.83642847 .00034884 00000-0 12808-2 0 9999 2 58472 97.4197 309.0358 0010747 26.1399 334.0380 15.27802613 41373 SO-121 1 58567U 23174CY 24242.14505208 .00148333 00000-0 33954-2 0 9995 2 58567 97.4459 318.6103 0008856 309.7888 50.2578 15.42185912 44972 SONATE-2 1 59112U 24043Q 24241.60308775 .00027267 00000-0 12273-2 0 9991 2 59112 97.4850 4.7917 0014674 44.3405 315.9003 15.20958609 26805 MESAT1 1 60209U 24125G 24242.43743913 .00023469 00000-0 10484-2 0 9992 2 60209 97.3163 93.6514 0027379 69.3027 291.1140 15.21001021 8549 GRBBeta 1 60237U 24128C 24242.55616934 .00010072 00000-0 87216-3 0 9995 2 60237 61.9963 346.2951 0014660 324.8420 35.1700 14.97548459 7586 Curium One 1 60242U 24128H 24241.58287369 .00018137 00000-0 15806-2 0 9994 2 60242 61.9871 349.8271 0016223 307.5711 52.3903 14.96900313 7443 ROBUSTA-3A 1 60243U 24128J 24242.19061383 .00015151 00000-0 13306-2 0 9995 2 60243 61.9937 347.8244 0014787 301.3784 58.5856 14.96715070 7539 CatSat 1 60246U 24125J 24241.54950411 .00018991 00000-0 84421-3 0 9994 2 60246 97.3016 94.0227 0052999 23.5634 33.6688 15.20266002 6528 /EX
